Location: Buffign�court
(47.8126°N, 6.0176°E)
Time: 13:30:13
(UTC+00:00)

Geosat - Pass Details

Date: 16 June 2021
Orbit: 762 x 766 km, 108.0° (Epoch: 31 July)

Event Time Altitude Azimuth Distance (km) Brightness Sun altitude
Exits shadow 21:15:05 14° 169° (S) 2,005 5.6 -12.0°
Maximum altitude 21:19:15 56° 245° (WSW) 910 4.4 -12.4°
Drops below altitude 10° 21:24:11 10° 324° (NW) 2,310 8.0 -12.8°
Sets 21:26:32 0° 328° (NNW) 3,241 9.3 -13.0°
